Location: Larrial
(48.2758°N, 4.5331°W)
Time: 00:48:50
(UTC+00:00)

XW-2F - Pass Details

Date: 29 November 2021
Orbit: 495 x 515 km, 97.5° (Epoch: 16 January)

Event Time Altitude Azimuth Distance (km) Brightness Sun altitude
Rises 17:41:34 0° 171° (S) 2,591 ? -12.0°
Reaches altitude 10° 17:43:39 10° 173° (S) 1,715 ? -12.3°
Maximum altitude 17:47:20 71° 258° (WSW) 544 ? -12.9°
Drops below altitude 10° 17:51:05 10° 343° (NNW) 1,744 ? -13.5°
Sets 17:53:12 0° 346° (NNW) 2,639 ? -13.8°
